Location: ????????
(54.6123°N, 39.2099°E)
Time: 14:57:29
(UTC+00:00)

Okean 1 - Pass Details

Date: 19 May 2025
Orbit: 478 x 498 km, 82.5° (Epoch: 20 June)

Event Time Altitude Azimuth Distance (km) Brightness Sun altitude
Exits shadow 18:34:57 10° 143° (SE) 1,688 5.1 -7.6°
Reaches altitude 10° 18:34:58 10° 143° (SE) 1,683 5.1 -7.6°
Maximum altitude 18:37:57 24° 89° (E) 1,068 4.5 -7.8°
Drops below altitude 10° 18:40:56 10° 35° (NE) 1,685 6.0 -8.1°
Sets 18:43:18 0° 21° (NNE) 2,567 7.2 -8.3°
